Regional Weather Roundup
Issued by NWS

Home | Current Version | Previous Version | Graphics & Text | Print | Product List | Glossary On
Versions: 1 2 3 4 5 6 7 8 9 10 11 12 13 14 15 16 17 18 19 20 21 22 23 24 25 26 27 28 29 30 31 32 33 34 35 36 37 38 39 40 41 42 43 44 45 46 47 48 49 50
000
ASUS43 KMPX 140801
RWRMN
WEATHER ROUNDUP FOR MINNESOTA
NATIONAL WEATHER SERVICE TWIN CITIES/CHANHASSEN MN
200 AM CST THU DEC 14 2017


NOTE: "FAIR" INDICATES FEW OR NO CLOUDS BELOW 12,000 FEET WITH NO
SIGNIFICANT WEATHER AND/OR OBSTRUCTIONS TO VISIBILITY. N/A MEANS
CURRENT SKY AND/OR WEATHER CONDITIONS ARE NOT AVAILABLE.

MNZ060>063-068>070-140900-
   Twin Cities Metro

CITY           SKY/WX    TMP DP  RH WIND       PRES   REMARKS
TWIN CITIES    CLOUDY    20  16  84 W3        29.99S
ST PAUL        CLOUDY    19  16  88 E3        30.00S
CRYSTAL        CLOUDY    19  12  74 W6        29.97S WCI  11
BLAINE         FLURRIES  21  18  86 W5        29.97S WCI  15
LAKEVILLE        N/A     12  12 100 CALM      29.99R
EDEN PRAIRIE   CLOUDY    19  14  81 CALM      29.98S
SOUTH ST PAUL  CLOUDY    19  15  84 CALM      29.99S
LAKE ELMO      CLOUDY    18  14  86 CALM      29.99R
$$
MNZ001>005-007-008-013>017-022>024-027-028-140900-
   Northwest Minnesota

CITY           SKY/WX    TMP DP  RH WIND       PRES   REMARKS
BEMIDJI        FLURRIES  11   8  87 W6        29.95R WCI   2
HALLOCK        CLOUDY    18  14  86 SW5       29.96F WCI  11
ROSEAU         FLURRIES  14   9  79 W7        29.95S WCI   4
WARROAD        LGT SNOW  10   7  85 CALM      29.95S
CROOKSTON      CLOUDY    16  12  86 CALM      30.01R
FOSSTON        FLURRIES  10   9  92 CALM      29.96F
DETROIT LAKES  CLOUDY    18  14  86 NW7       29.97R WCI   8
MOORHEAD       MIX PCPN  16  12  86 CALM      30.01S
PARK RAPIDS    CLOUDY    13   9  84 W8        29.94R WCI   2
MAHNOMEN       CLOUDY    13  10  87 N3        29.98R
$$
MNZ006-009>011-018-025>026-140900-
   North Central Minnesota

CITY           SKY/WX    TMP DP  RH WIND       PRES   REMARKS
BAUDETTE       CLOUDY     6   4  91 CALM      29.94R
FLAG ISLAND    CLOUDY     9   7  92 W7        29.93S WCI  -3
INTL FALLS     FLURRIES  13   9  84 SW6       29.92R WCI   4
WASKISH        FLURRIES  12  10  92 W6        29.95R WCI   3
BIG FORK       CLOUDY    16  12  86 CALM      29.93R
LONGVILLE      FLURRIES  12  10  92 W5        29.95R WCI   4
GRAND RAPIDS   FLURRIES  15  12  88 W5        29.95R WCI   8
CRANE LAKE     FLURRIES  12  10  92 CALM      29.94S
ORR            MIX PCPN  14  10  85 W3        29.88S
COOK           CLOUDY    14  12  92 W3        29.91R
WALKER         FLURRIES  12   9  88 W6        29.95R WCI   3
$$
MNZ012-019>021-037-140900-
   Northeast Minnesota

CITY           SKY/WX    TMP DP  RH WIND       PRES   REMARKS
DULUTH         MOCLDY     8   6  92 N6        29.91R WCI  -2
ELY            FLURRIES  10   9  92 W3        29.89F
HIBBING        CLOUDY    14  11  87 W5        29.91S WCI   6
EVELETH        FLURRIES  13   8  81 W3        29.91F
DULUTH HARBOR  PTCLDY    12   9  85 W6        29.99R WCI   3
TWO HARBORS    CLEAR      5   0  78 W5        29.91R WCI  -4
SILVER BAY     CLEAR    -13 -17  84 CALM      29.90
GRAND MARAIS     N/A     -4  -8  83 N3        29.95R
G MARAIS ARPRT CLOUDY    -2  -8  78 CALM      29.82R
$$
MNZ029>031-032-039>041-046>048-054>057-064-140900-
   West Central Minnesota

CITY           SKY/WX    TMP DP  RH WIND       PRES   REMARKS
FERGUS FALLS   CLOUDY    16  12  86 W8        30.02F WCI   5
WHEATON        CLOUDY    19  16  86 N3        30.02F
MORRIS         CLOUDY    19  16  86 NW8       29.99R WCI   9
ALEXANDRIA     CLOUDY    18  14  84 W8        29.97R WCI   8
ELBOW LAKE     CLOUDY    17  14  88 NW7       29.99S WCI   7
WADENA         CLOUDY    14  10  85 W5        29.95S WCI   6
GLENWOOD       MOCLDY    18  16  93 W6        29.98R WCI   9
APPLETON         N/A     21  16  79 N6        30.00S WCI  14
BENSON         CLOUDY    19  16  86 NW7       30.01R WCI  10
ORTONVILLE     CLOUDY    21  16  79 N3        30.00R
MADISON        CLOUDY    23  18  80 CALM      30.01S
WILLMAR        CLOUDY    19  16  86 CALM      30.00R
$$
MNZ033>034-036-042>043-049>051-058-059-140900-
   Central Minnesota

CITY           SKY/WX    TMP DP  RH WIND       PRES   REMARKS
ST CLOUD       CLOUDY    10   8  92 W7        30.00R WCI  -1
SAUK CENTRE    CLOUDY    13  10  90 CALM      29.98R
PAYNESVILLE    CLOUDY    11  10  95 CALM      29.99R
AITKIN         CLOUDY    14  10  85 CALM      29.94S
PINE RIVER     FLURRIES  12   9  85 CALM      29.98S
BRAINERD       CLOUDY    16  11  80 W5        29.96R WCI   9
STAPLES        CLOUDY    12  10  92 NW5       29.96S WCI   4
LONG PRAIRIE   CLOUDY    16  12  86 SW5       29.97R WCI   9
LITTLE FALLS   CLOUDY     3  -2  78 CALM      29.99R
LITCHFIELD     CLEAR     16  12  86 CALM      30.00R
BUFFALO        CLOUDY    17  13  82 W5        30.00R WCI  10
MAPLE LAKE     CLOUDY    17  14  88 W5        30.01R WCI  10
HUTCHINSON     CLOUDY    12  10  89 CALM      30.00S
$$
MNZ037-044-045-052-053-140900-
   East Central Minnesota

CITY           SKY/WX    TMP DP  RH WIND       PRES   REMARKS
PRINCETON      CLOUDY    10   9  92 CALM      29.98R
MORA           SNOW       3   1  92 CALM      29.99R VSB 1/2
CAMBRIDGE      CLOUDY    12   9  85 W5        29.99R WCI   4
RUSH CITY      CLOUDY    16  14  92 CALM      29.98R
MOOSE LAKE     CLOUDY    18  12  79 W5        29.94R WCI  11
HINCKLEY       CLOUDY    18  14  86 CALM      29.97R
CLOQUET        MOCLDY     9   5  85 NW3       29.92S
MCGREGOR       CLOUDY    19  14  79 W7        29.95R WCI  10
$$
MNZ071>073-080-081-089-090-097-098-140900-
   Southwest Minnesota

CITY           SKY/WX    TMP DP  RH WIND       PRES   REMARKS
MONTEVIDEO     CLOUDY    21  16  79 NW8       30.00S WCI  12
GRANITE FALLS  CLOUDY    24  19  80 W8        30.02S WCI  15
CANBY          CLOUDY    22  19  86 CALM      30.01S
MARSHALL       CLOUDY    21  17  84 N13       30.00F WCI   9
REDWOOD FALLS  CLOUDY    18  11  74 CALM      29.99F
OLIVIA         MOCLDY    18  14  86 CALM      29.99S
PIPESTONE      CLOUDY    23  21  93 NE3       29.96S
WINDOM           N/A     21   9  58 NE3       29.98R
WORTHINGTON    CLOUDY    21  17  84 N15       29.98S WCI   8
JACKSON        CLOUDY    23  18  80 MISG      29.98R
SLAYTON        CLOUDY    21  18  89 N9        29.98S WCI  11
$$
MNZ065>067-074>077-082>085-091>093-140900-
   South Central Minnesota

CITY           SKY/WX    TMP DP  RH WIND       PRES   REMARKS
MANKATO        CLEAR     15  12  88 NW5       30.00R WCI   8
NEW ULM        CLEAR     16  10  79 NE3       29.99F
ST JAMES       CLOUDY    16  12  86 NW3       30.01S
FAIRMONT       CLOUDY    19  15  84 N8        30.00R WCI   9
GLENCOE        CLOUDY    18  15  88 W3        29.99S
FARIBAULT      CLEAR     12  10  92 CALM      29.99R
OWATONNA       CLOUDY     9   7  92 CALM      29.98R
WASECA         CLEAR     14  10  85 CALM      30.00R
$$
MNZ078>079-086>088-094>096-140900-
   Southeast Minnesota

CITY           SKY/WX    TMP DP  RH WIND       PRES   REMARKS
ROCHESTER      CLEAR     12  10  92 NW7       29.96R WCI   1
RED WING       CLOUDY     7   1  78 CALM      29.99R
STANTON        CLEAR     11   8  88 SW3       29.98S
DODGE CENTER   LGT SNOW   9   7  92 W3        29.96R
WINONA           N/A     12  10  92 CALM      30.01R
PRESTON        CLEAR     12   9  87 NW5       29.96S WCI   4
$$
ABBREVIATIONS USED IN REMARKS
   TC - TEMPERATURES IN CELSIUS
  WCI - WIND CHILL INDEX
   HX - HEAT INDEX
  VSB - VISIBILITY
$$



USA.gov is the U.S. government's official web portal to all federal, state and local government web resources and services.